| time (UTC) | temp C | wind direction | speed KPH | gust KPH | rain 1hr cm | rain 24hr cm | rain mn cm | humidity % | barometer mb |
| 20260904160824 | 36 | 203 | 4.8 | 6.4 | 0.00 | 0.00 | 0.03 | 67 | 1018.9 |
| 20260904160410 | 36 | 225 | 3.2 | 4.8 | 0.00 | 0.00 | 0.03 | 68 | 1019.3 |
| 20260904155953 | 35 | 248 | 3.2 | 6.4 | 0.00 | 0.00 | 0.03 | 69 | 1018.9 |
| 20260904155537 | 35 | 180 | 1.6 | 6.4 | 0.00 | 0.00 | 0.03 | 71 | 1018.9 |
| 20260904155121 | 35 | 270 | 4.8 | 8.0 | 0.00 | 0.00 | 0.03 | 72 | 1019.3 |
| 20260904154702 | 35 | 158 | 3.2 | 8.0 | 0.00 | 0.00 | 0.03 | 72 | 1019.3 |
| 20260904154247 | 34 | 248 | 3.2 | 6.4 | 0.00 | 0.00 | 0.03 | 73 | 1019.3 |
| 20260904153815 | 34 | 180 | 6.4 | 6.4 | 0.00 | 0.00 | 0.03 | 73 | 1019.3 |
| 20260904153358 | 35 | 203 | 3.2 | 3.2 | 0.00 | 0.00 | 0.03 | 74 | 1019.3 |
| 20260904152940 | 34 | 203 | 3.2 | 4.8 | 0.00 | 0.00 | 0.03 | 74 | 1019.3 |
| 20260904152455 | 34 | 180 | 1.6 | 6.4 | 0.00 | 0.00 | 0.03 | 74 | 1019.3 |
| 20260904152039 | 34 | 203 | 3.2 | 4.8 | 0.00 | 0.00 | 0.03 | 76 | 1019.3 |
| 20260904151619 | 34 | 180 | 1.6 | 6.4 | 0.00 | 0.00 | 0.03 | 75 | 1019.3 |
| 20260904151201 | 33 | 180 | 3.2 | 4.8 | 0.00 | 0.00 | 0.03 | 77 | 1019.3 |
| 20260904150745 | 34 | 315 | 1.6 | 4.8 | 0.00 | 0.00 | 0.03 | 76 | 1019.3 |
| 20260904150328 | 33 | 203 | 3.2 | 3.2 | 0.00 | 0.00 | 0.03 | 78 | 1019.3 |
| 20260904145911 | 33 | 203 | 0.0 | 1.6 | 0.00 | 0.00 | 0.03 | 79 | 1019.3 |
| 20260904145438 | 32 | 113 | 3.2 | 3.2 | 0.00 | 0.00 | 0.03 | 80 | 1019.3 |
| 20260904144536 | 32 | 23 | 0.0 | 1.6 | 0.00 | 0.00 | 0.03 | 80 | 1019.3 |
| 20260904143645 | 32 | 23 | 0.0 | 3.2 | 0.00 | 0.00 | 0.03 | 81 | 1019.3 |
| 20260904142757 | 31 | 180 | 3.2 | 4.8 | 0.00 | 0.00 | 0.03 | 84 | 1019.3 |
| 20260904142342 | 31 | 0 | 3.2 | 3.2 | 0.00 | 0.00 | 0.03 | 83 | 1019.3 |
| 20260904141910 | 30 | 225 | 0.0 | 0.0 | 0.00 | 0.00 | 0.03 | 86 | 1019.3 |
| 20260904141454 | 30 | 158 | 1.6 | 3.2 | 0.00 | 0.00 | 0.03 | 86 | 1019.3 |
| 20260904141039 | 30 | 203 | 1.6 | 4.8 | 0.00 | 0.00 | 0.03 | 85 | 1019.3 |
| 20260904140624 | 30 | 203 | 1.6 | 3.2 | 0.00 | 0.00 | 0.03 | 86 | 1019.3 |
| 20260904140208 | 29 | 225 | 0.0 | 4.8 | 0.00 | 0.00 | 0.03 | 89 | 1019.3 |
| 20260904135750 | 30 | 225 | 3.2 | 3.2 | 0.00 | 0.00 | 0.03 | 88 | 1019.3 |
| 20260904135332 | 30 | 180 | 0.0 | 1.6 | 0.00 | 0.00 | 0.03 | 88 | 1019.3 |
| 20260904134914 | 29 | 270 | 0.0 | 1.6 | 0.00 | 0.00 | 0.03 | 90 | 1019.3 |
| 20260904134459 | 28 | 225 | 0.0 | 3.2 | 0.00 | 0.00 | 0.03 | 90 | 1019.3 |
| 20260904134010 | 28 | 270 | 0.0 | 0.0 | 0.00 | 0.00 | 0.03 | 92 | 1019.3 |
| 20260904133555 | 27 | 203 | 0.0 | 0.0 | 0.00 | 0.00 | 0.03 | 93 | 1019.3 |
| 20260904133138 | 27 | 180 | 0.0 | 3.2 | 0.00 | 0.00 | 0.03 | 93 | 1019.3 |
| 20260904132721 | 27 | 180 | 3.2 | 3.2 | 0.00 | 0.00 | 0.03 | 94 | 1019.3 |
| 20260904132251 | 27 | 203 | 3.2 | 3.2 | 0.00 | 0.00 | 0.03 | 95 | 1019.6 |
| 20260904131834 | 26 | 270 | 0.0 | 0.0 | 0.00 | 0.00 | 0.03 | 96 | 1019.6 |
| 20260904131403 | 26 | 203 | 3.2 | 3.2 | 0.00 | 0.00 | 0.03 | 97 | 1019.6 |
| 20260904130946 | 26 | 225 | 0.0 | 0.0 | 0.00 | 0.00 | 0.00 | 97 | 1019.6 |
| 20260904130514 | 26 | 203 | 0.0 | 0.0 | 0.00 | 0.00 | 0.00 | 98 | 1019.6 |
| 20260904130100 | 26 | 158 | 0.0 | 0.0 | 0.00 | 0.00 | 0.00 | 98 | 1019.6 |
| 20260904125628 | 26 | 203 | 0.0 | 0.0 | 0.00 | 0.00 | 0.00 | 99 | 1019.6 |
| 20260904125212 | 25 | 203 | 0.0 | 0.0 | 0.00 | 0.00 | 0.00 | 99 | 1019.6 |
| 20260904124757 | 25 | 180 | 0.0 | 0.0 | 0.00 | 0.00 | 0.00 | 99 | 1019.6 |
| 20260904124325 | 25 | 113 | 0.0 | 0.0 | 0.00 | 0.00 | 0.00 | 99 | 1019.6 |
| 20260904123854 | 25 | 203 | 0.0 | 0.0 | 0.00 | 0.00 | 0.00 | 99 | 1019.6 |
| 20260904123423 | 24 | 180 | 0.0 | 0.0 | 0.00 | 0.00 | 0.00 | 99 | 1019.6 |
| 20260904123009 | 24 | 158 | 0.0 | 0.0 | 0.00 | 0.00 | 0.00 | 99 | 1019.9 |
| 20260904122110 | 23 | 203 | 0.0 | 0.0 | 0.00 | 0.00 | 0.00 | 99 | 1019.6 |
| 20260904121655 | 23 | 203 | 0.0 | 0.0 | 0.00 | 0.00 | 0.00 | 99 | 1019.6 |
| 20260904121242 | 23 | 225 | 0.0 | 0.0 | 0.00 | 0.00 | 0.00 | 99 | 1019.6 |
| 20260904120825 | 23 | 225 | 0.0 | 0.0 | 0.00 | 0.00 | 0.00 | 99 | 1019.6 |
| 20260904120409 | 22 | 203 | 0.0 | 0.0 | 0.00 | 0.00 | 0.00 | 99 | 1019.6 |
| 20260904115952 | 22 | 225 | 0.0 | 0.0 | 0.00 | 0.00 | 0.00 | 99 | 1019.6 |
| 20260904115539 | 22 | 225 | 0.0 | 0.0 | 0.00 | 0.00 | 0.00 | 99 | 1019.6 |
| 20260904115125 | 22 | 248 | 0.0 | 0.0 | 0.00 | 0.00 | 0.00 | 99 | 1019.6 |
| 20260904114709 | 22 | 248 | 0.0 | 0.0 | 0.00 | 0.00 | 0.00 | 99 | 1019.3 |
| 20260904114253 | 22 | 203 | 0.0 | 0.0 | 0.00 | 0.00 | 0.00 | 99 | 1019.3 |
| 20260904113823 | 22 | 293 | 0.0 | 0.0 | 0.00 | 0.00 | 0.00 | 99 | 1019.3 |
| 20260904113408 | 22 | 225 | 0.0 | 0.0 | 0.00 | 0.00 | 0.00 | 99 | 1019.3 |
| 20260904112952 | 22 | 315 | 0.0 | 0.0 | 0.00 | 0.00 | 0.00 | 99 | 1019.3 |
| 20260904112536 | 22 | 180 | 0.0 | 0.0 | 0.00 | 0.00 | 0.00 | 99 | 1019.3 |
| 20260904112122 | 22 | 225 | 0.0 | 0.0 | 0.00 | 0.00 | 0.00 | 99 | 1019.3 |
| 20260904111705 | 22 | 225 | 0.0 | 0.0 | 0.00 | 0.00 | 0.00 | 99 | 1019.3 |
| 20260904111249 | 22 | 248 | 0.0 | 0.0 | 0.00 | 0.00 | 0.00 | 99 | 1019.3 |
| 20260904110834 | 22 | 315 | 0.0 | 0.0 | 0.00 | 0.00 | 0.00 | 99 | 1019.3 |
| 20260904110417 | 22 | 225 | 0.0 | 0.0 | 0.00 | 0.00 | 0.00 | 99 | 1019.3 |
| 20260904105516 | 22 | 203 | 0.0 | 0.0 | 0.00 | 0.00 | 0.00 | 99 | 1019.3 |
| 20260904105059 | 22 | 315 | 0.0 | 0.0 | 0.00 | 0.00 | 0.00 | 99 | 1019.3 |
| 20260904104628 | 22 | 270 | 0.0 | 0.0 | 0.00 | 0.00 | 0.00 | 99 | 1018.9 |
| 20260904104214 | 22 | 270 | 0.0 | 0.0 | 0.00 | 0.00 | 0.00 | 99 | 1018.9 |
| 20260904103312 | 22 | 225 | 0.0 | 0.0 | 0.00 | 0.00 | 0.00 | 99 | 1018.9 |
| 20260904102857 | 22 | 270 | 0.0 | 0.0 | 0.00 | 0.00 | 0.00 | 99 | 1018.9 |
| 20260904102426 | 22 | 270 | 0.0 | 0.0 | 0.00 | 0.00 | 0.00 | 99 | 1018.9 |
| 20260904102010 | 22 | 270 | 0.0 | 0.0 | 0.00 | 0.00 | 0.00 | 99 | 1018.9 |
| 20260904101555 | 22 | 225 | 0.0 | 0.0 | 0.00 | 0.00 | 0.00 | 99 | 1018.9 |
| 20260904101140 | 22 | 225 | 0.0 | 0.0 | 0.00 | 0.00 | 0.00 | 99 | 1018.9 |
| 20260904100725 | 22 | 203 | 0.0 | 0.0 | 0.00 | 0.00 | 0.00 | 99 | 1018.9 |
| 20260904100309 | 22 | 203 | 0.0 | 0.0 | 0.00 | 0.00 | 0.00 | 99 | 1018.9 |
| 20260904095823 | 22 | 225 | 0.0 | 0.0 | 0.00 | 0.00 | 0.00 | 99 | 1018.9 |
| 20260904095408 | 22 | 203 | 0.0 | 0.0 | 0.00 | 0.00 | 0.00 | 99 | 1018.9 |
| 20260904094951 | 22 | 225 | 0.0 | 0.0 | 0.00 | 0.00 | 0.00 | 99 | 1018.9 |
| 20260904094538 | 22 | 225 | 0.0 | 0.0 | 0.00 | 0.00 | 0.00 | 99 | 1018.9 |
| 20260904093634 | 22 | 225 | 0.0 | 0.0 | 0.00 | 0.00 | 0.00 | 99 | 1018.9 |
| 20260904093200 | 22 | 225 | 0.0 | 0.0 | 0.00 | 0.00 | 0.00 | 99 | 1018.9 |
| 20260904092728 | 22 | 203 | 0.0 | 0.0 | 0.00 | 0.00 | 0.00 | 99 | 1018.9 |
| 20260904091813 | 22 | 225 | 0.0 | 0.0 | 0.00 | 0.00 | 0.00 | 99 | 1018.6 |
| 20260904091327 | 22 | 225 | 0.0 | 0.0 | 0.00 | 0.00 | 0.00 | 99 | 1018.6 |
| 20260904090912 | 22 | 225 | 0.0 | 0.0 | 0.00 | 0.00 | 0.00 | 99 | 1018.6 |
| 20260904090457 | 22 | 225 | 0.0 | 0.0 | 0.00 | 0.00 | 0.00 | 99 | 1018.6 |
| 20260904090042 | 22 | 203 | 0.0 | 0.0 | 0.00 | 0.00 | 0.00 | 99 | 1018.6 |
| 20260904085626 | 22 | 203 | 0.0 | 0.0 | 0.00 | 0.00 | 0.00 | 99 | 1018.6 |
| 20260904085212 | 22 | 315 | 0.0 | 0.0 | 0.00 | 0.00 | 0.00 | 99 | 1018.6 |
| 20260904084325 | 22 | 225 | 0.0 | 0.0 | 0.00 | 0.00 | 0.00 | 99 | 1018.2 |
| 20260904083440 | 22 | 203 | 0.0 | 0.0 | 0.00 | 0.00 | 0.00 | 99 | 1018.6 |
| 20260904083025 | 22 | 270 | 0.0 | 0.0 | 0.00 | 0.00 | 0.00 | 99 | 1018.2 |
| 20260904082139 | 22 | 270 | 0.0 | 0.0 | 0.00 | 0.00 | 0.00 | 99 | 1018.2 |
| 20260904081254 | 22 | 248 | 0.0 | 0.0 | 0.00 | 0.00 | 0.00 | 99 | 1018.2 |
| 20260904080410 | 22 | 113 | 0.0 | 0.0 | 0.00 | 0.00 | 0.00 | 99 | 1018.2 |
| 20260904075938 | 22 | 225 | 0.0 | 0.0 | 0.00 | 0.00 | 0.00 | 99 | 1018.2 |
| 20260904075522 | 22 | 248 | 0.0 | 0.0 | 0.00 | 0.00 | 0.00 | 99 | 1018.2 |
| 20260904075106 | 22 | 248 | 0.0 | 0.0 | 0.00 | 0.00 | 0.00 | 99 | 1018.2 |
| 20260904074650 | 22 | 270 | 0.0 | 0.0 | 0.00 | 0.00 | 0.00 | 99 | 1018.2 |
| 20260904072900 | 22 | 270 | 0.0 | 0.0 | 0.00 | 0.00 | 0.00 | 99 | 1018.2 |
| 20260904072446 | 22 | 225 | 0.0 | 0.0 | 0.00 | 0.00 | 0.00 | 99 | 1018.2 |
| 20260904072032 | 22 | 113 | 0.0 | 0.0 | 0.00 | 0.00 | 0.00 | 99 | 1018.2 |
| 20260904071616 | 22 | 225 | 0.0 | 0.0 | 0.00 | 0.00 | 0.00 | 99 | 1018.2 |
| 20260904071158 | 22 | 225 | 0.0 | 0.0 | 0.00 | 0.00 | 0.00 | 99 | 1018.2 |
| 20260904070744 | 22 | 225 | 0.0 | 0.0 | 0.00 | 0.00 | 0.00 | 99 | 1018.2 |
| 20260904070327 | 22 | 225 | 0.0 | 0.0 | 0.00 | 0.00 | 0.00 | 99 | 1018.2 |
| 20260904065912 | 22 | 225 | 0.0 | 0.0 | 0.00 | 0.00 | 0.00 | 99 | 1018.6 |
| 20260904065441 | 22 | 203 | 0.0 | 0.0 | 0.00 | 0.00 | 0.00 | 99 | 1018.6 |
| 20260904065024 | 22 | 270 | 0.0 | 0.0 | 0.00 | 0.00 | 0.00 | 99 | 1018.6 |
| 20260904064607 | 22 | 203 | 0.0 | 0.0 | 0.00 | 0.00 | 0.00 | 99 | 1018.6 |
| 20260904064149 | 22 | 225 | 0.0 | 0.0 | 0.00 | 0.00 | 0.00 | 99 | 1018.2 |
| 20260904063733 | 22 | 225 | 0.0 | 0.0 | 0.00 | 0.00 | 0.00 | 99 | 1018.6 |
| 20260904062830 | 22 | 225 | 0.0 | 0.0 | 0.00 | 0.00 | 0.00 | 99 | 1018.6 |
| 20260904062415 | 22 | 225 | 0.0 | 0.0 | 0.00 | 0.00 | 0.00 | 99 | 1018.6 |
| 20260904061959 | 22 | 203 | 0.0 | 0.0 | 0.00 | 0.00 | 0.00 | 99 | 1018.6 |
| 20260904061544 | 22 | 225 | 0.0 | 0.0 | 0.00 | 0.00 | 0.00 | 99 | 1018.6 |
| 20260904061129 | 23 | 248 | 0.0 | 0.0 | 0.00 | 0.00 | 0.00 | 99 | 1018.6 |
| 20260904060657 | 23 | 203 | 0.0 | 0.0 | 0.00 | 0.00 | 0.00 | 99 | 1018.9 |
| 20260904055811 | 23 | 225 | 0.0 | 0.0 | 0.00 | 0.00 | 0.00 | 99 | 1018.9 |
| 20260904055356 | 23 | 203 | 0.0 | 0.0 | 0.00 | 0.00 | 0.00 | 99 | 1018.9 |
| 20260904054925 | 23 | 225 | 0.0 | 0.0 | 0.00 | 0.00 | 0.00 | 99 | 1018.9 |
| 20260904054509 | 23 | 180 | 0.0 | 0.0 | 0.00 | 0.00 | 0.00 | 99 | 1018.9 |
| 20260904053607 | 23 | 203 | 0.0 | 0.0 | 0.00 | 0.00 | 0.00 | 99 | 1018.9 |
| 20260904052721 | 23 | 203 | 0.0 | 0.0 | 0.00 | 0.00 | 0.00 | 99 | 1018.9 |
| 20260904052139 | 23 | 45 | 0.0 | 0.0 | 0.00 | 0.00 | 0.00 | 99 | 1018.9 |
| 20260904051541 | 23 | 248 | 0.0 | 0.0 | 0.00 | 0.00 | 0.00 | 99 | 1018.9 |
| 20260904050337 | 23 | 225 | 0.0 | 0.0 | 0.00 | 0.00 | 0.00 | 99 | 1018.9 |
| 20260904045739 | 23 | 248 | 0.0 | 0.0 | 0.00 | 0.00 | 0.00 | 99 | 1019.3 |
| 20260904045117 | 23 | 248 | 0.0 | 0.0 | 0.00 | 0.00 | 0.00 | 99 | 1019.3 |
| 20260904044508 | 23 | 203 | 0.0 | 0.0 | 0.00 | 0.00 | 0.00 | 99 | 1019.3 |
| 20260904043947 | 23 | 225 | 0.0 | 0.0 | 0.00 | 0.00 | 0.00 | 99 | 1018.9 |
| 20260904043315 | 23 | 203 | 0.0 | 0.0 | 0.00 | 0.00 | 0.00 | 99 | 1019.3 |
| 20260904042106 | 23 | 203 | 0.0 | 0.0 | 0.00 | 0.00 | 0.00 | 99 | 1018.9 |
| 20260904041546 | 23 | 225 | 0.0 | 0.0 | 0.00 | 0.00 | 0.00 | 99 | 1018.9 |
| 20260904040937 | 23 | 203 | 0.0 | 0.0 | 0.00 | 0.00 | 0.00 | 99 | 1019.3 |
| 20260904040322 | 23 | 338 | 0.0 | 0.0 | 0.00 | 0.00 | 0.00 | 99 | 1018.9 |
| 20260904035721 | 23 | 225 | 0.0 | 0.0 | 0.00 | 0.00 | 0.00 | 99 | 1018.9 |
| 20260904035147 | 23 | 225 | 0.0 | 0.0 | 0.00 | 0.00 | 0.00 | 99 | 1019.3 |
| 20260904034512 | 23 | 225 | 0.0 | 0.0 | 0.00 | 0.00 | 0.00 | 99 | 1019.3 |
| 20260904033348 | 24 | 248 | 0.0 | 1.6 | 0.00 | 0.00 | 0.00 | 99 | 1019.3 |
| 20260904032711 | 24 | 203 | 0.0 | 0.0 | 0.00 | 0.00 | 0.00 | 99 | 1019.3 |
| 20260904031525 | 24 | 225 | 0.0 | 0.0 | 0.00 | 0.00 | 0.00 | 99 | 1019.3 |
| 20260904030349 | 24 | 225 | 0.0 | 0.0 | 0.00 | 0.00 | 0.00 | 99 | 1019.3 |
| 20260904025749 | 24 | 225 | 0.0 | 0.0 | 0.00 | 0.00 | 0.00 | 99 | 1019.3 |
| 20260904025117 | 24 | 225 | 0.0 | 0.0 | 0.00 | 0.00 | 0.00 | 99 | 1019.3 |
| 20260904024522 | 24 | 180 | 0.0 | 0.0 | 0.00 | 0.00 | 0.00 | 99 | 1019.3 |
| 20260904023913 | 25 | 270 | 0.0 | 0.0 | 0.00 | 0.00 | 0.00 | 99 | 1019.3 |
| 20260904023327 | 25 | 203 | 0.0 | 0.0 | 0.00 | 0.00 | 0.00 | 99 | 1019.3 |
| 20260904022749 | 25 | 225 | 0.0 | 0.0 | 0.00 | 0.00 | 0.00 | 99 | 1019.3 |
| 20260904022113 | 25 | 203 | 0.0 | 0.0 | 0.00 | 0.00 | 0.00 | 99 | 1019.3 |
| 20260904021516 | 25 | 203 | 0.0 | 0.0 | 0.00 | 0.00 | 0.00 | 99 | 1019.3 |
| 20260904020922 | 25 | 203 | 0.0 | 3.2 | 0.00 | 0.00 | 0.00 | 99 | 1019.3 |
| 20260904020329 | 25 | 203 | 0.0 | 0.0 | 0.00 | 0.00 | 0.00 | 99 | 1018.9 |
| 20260904015747 | 25 | 225 | 0.0 | 0.0 | 0.00 | 0.00 | 0.00 | 99 | 1018.9 |
| 20260904015110 | 25 | 203 | 0.0 | 0.0 | 0.00 | 0.00 | 0.00 | 99 | 1018.9 |
| 20260904014550 | 25 | 248 | 1.6 | 1.6 | 0.00 | 0.00 | 0.00 | 99 | 1018.9 |
| 20260904013945 | 25 | 203 | 0.0 | 3.2 | 0.00 | 0.00 | 0.00 | 99 | 1018.9 |
| 20260904013321 | 25 | 203 | 3.2 | 3.2 | 0.00 | 0.00 | 0.00 | 99 | 1018.9 |
| 20260904012716 | 26 | 180 | 0.0 | 0.0 | 0.00 | 0.00 | 0.00 | 99 | 1018.9 |
| 20260904012125 | 26 | 225 | 0.0 | 0.0 | 0.00 | 0.00 | 0.00 | 99 | 1018.9 |
| 20260904011515 | 26 | 225 | 0.0 | 0.0 | 0.00 | 0.00 | 0.00 | 99 | 1018.9 |
| 20260904010320 | 26 | 225 | 3.2 | 3.2 | 0.00 | 0.00 | 0.00 | 99 | 1018.9 |
| 20260904005735 | 26 | 225 | 0.0 | 0.0 | 0.00 | 0.00 | 0.00 | 99 | 1018.6 |
| 20260904005115 | 26 | 225 | 0.0 | 0.0 | 0.00 | 0.00 | 0.00 | 99 | 1018.6 |
| 20260904004546 | 27 | 225 | 0.0 | 0.0 | 0.00 | 0.00 | 0.00 | 99 | 1018.6 |
| 20260904003911 | 27 | 248 | 1.6 | 3.2 | 0.00 | 0.00 | 0.00 | 99 | 1018.6 |
| 20260904003324 | 27 | 248 | 0.0 | 3.2 | 0.00 | 0.00 | 0.00 | 99 | 1018.2 |
| 20260904002733 | 27 | 248 | 1.6 | 3.2 | 0.00 | 0.00 | 0.00 | 98 | 1018.2 |
| 20260904002120 | 27 | 225 | 3.2 | 3.2 | 0.00 | 0.00 | 0.00 | 97 | 1018.2 |
| 20260904001507 | 27 | 203 | 3.2 | 3.2 | 0.00 | 0.00 | 0.00 | 98 | 1018.2 |
| 20260904000920 | 27 | 203 | 3.2 | 3.2 | 0.00 | 0.00 | 0.00 | 96 | 1017.9 |
| 20260904000311 | 28 | 203 | 3.2 | 4.8 | 0.00 | 0.00 | 0.00 | 94 | 1017.9 |
| 20260903235729 | 28 | 203 | 3.2 | 3.2 | 0.00 | 0.00 | 0.00 | 91 | 1017.9 |
| 20260903235134 | 29 | 203 | 3.2 | 3.2 | 0.00 | 0.00 | 0.00 | 90 | 1017.9 |
| 20260903234549 | 29 | 203 | 3.2 | 3.2 | 0.00 | 0.00 | 0.00 | 90 | 1017.9 |
| 20260903233921 | 29 | 225 | 4.8 | 6.4 | 0.00 | 0.00 | 0.00 | 90 | 1017.9 |
| 20260903233348 | 30 | 203 | 6.4 | 6.4 | 0.00 | 0.00 | 0.00 | 88 | 1017.9 |
| 20260903232711 | 30 | 203 | 4.8 | 4.8 | 0.00 | 0.00 | 0.00 | 85 | 1017.9 |
| 20260903232111 | 31 | 180 | 3.2 | 3.2 | 0.00 | 0.00 | 0.00 | 84 | 1017.6 |
| 20260903231545 | 31 | 203 | 3.2 | 4.8 | 0.00 | 0.00 | 0.00 | 83 | 1017.6 |
| 20260903230912 | 32 | 203 | 4.8 | 6.4 | 0.00 | 0.00 | 0.00 | 80 | 1017.6 |
| 20260903230333 | 33 | 180 | 3.2 | 4.8 | 0.00 | 0.00 | 0.00 | 75 | 1017.6 |
| 20260903225727 | 34 | 203 | 3.2 | 4.8 | 0.00 | 0.00 | 0.00 | 72 | 1017.6 |
| 20260903225135 | 33 | 180 | 4.8 | 4.8 | 0.00 | 0.00 | 0.00 | 74 | 1017.2 |
| 20260903224512 | 34 | 180 | 4.8 | 4.8 | 0.00 | 0.00 | 0.00 | 73 | 1017.2 |
| 20260903223934 | 34 | 225 | 3.2 | 4.8 | 0.00 | 0.00 | 0.00 | 71 | 1016.9 |
| 20260903223349 | 33 | 180 | 4.8 | 6.4 | 0.00 | 0.00 | 0.00 | 73 | 1016.9 |
| 20260903222714 | 34 | 203 | 4.8 | 4.8 | 0.00 | 0.00 | 0.00 | 71 | 1016.9 |
| 20260903221520 | 35 | 180 | 4.8 | 4.8 | 0.00 | 0.00 | 0.00 | 66 | 1016.9 |
| 20260903220942 | 35 | 203 | 4.8 | 4.8 | 0.00 | 0.00 | 0.00 | 66 | 1016.9 |
| 20260903220317 | 36 | 225 | 3.2 | 4.8 | 0.00 | 0.00 | 0.00 | 66 | 1016.9 |
| 20260903215722 | 36 | 225 | 3.2 | 4.8 | 0.00 | 0.00 | 0.00 | 62 | 1016.9 |
| 20260903215142 | 36 | 158 | 3.2 | 3.2 | 0.00 | 0.00 | 0.00 | 62 | 1017.2 |
| 20260903214506 | 35 | 225 | 3.2 | 3.2 | 0.00 | 0.00 | 0.00 | 63 | 1016.9 |
| 20260903213336 | 36 | 203 | 3.2 | 4.8 | 0.00 | 0.00 | 0.00 | 61 | 1017.2 |
| 20260903212722 | 37 | 293 | 0.0 | 6.4 | 0.00 | 0.00 | 0.00 | 59 | 1017.2 |
| 20260903212112 | 37 | 203 | 3.2 | 3.2 | 0.00 | 0.00 | 0.00 | 60 | 1017.2 |
| 20260903211534 | 37 | 225 | 3.2 | 3.2 | 0.00 | 0.00 | 0.00 | 59 | 1017.6 |
| 20260903210324 | 37 | 180 | 4.8 | 6.4 | 0.00 | 0.00 | 0.00 | 60 | 1017.6 |
| 20260903205707 | 36 | 135 | 3.2 | 8.0 | 0.00 | 0.00 | 0.00 | 59 | 1017.9 |
| 20260903205146 | 37 | 225 | 4.8 | 8.0 | 0.00 | 0.00 | 0.00 | 60 | 1017.9 |
| 20260903204536 | 36 | 248 | 3.2 | 8.0 | 0.00 | 0.00 | 0.00 | 60 | 1017.9 |
| 20260903203919 | 37 | 180 | 3.2 | 6.4 | 0.00 | 0.00 | 0.00 | 59 | 1017.9 |
| 20260903203310 | 37 | 203 | 3.2 | 6.4 | 0.00 | 0.00 | 0.00 | 59 | 1017.9 |
| 20260903202114 | 36 | 203 | 4.8 | 4.8 | 0.00 | 0.00 | 0.00 | 58 | 1017.9 |
| 20260903201522 | 37 | 203 | 6.4 | 6.4 | 0.00 | 0.00 | 0.00 | 58 | 1018.2 |
| 20260903200908 | 37 | 270 | 4.8 | 4.8 | 0.00 | 0.00 | 0.00 | 58 | 1018.2 |
| 20260903200344 | 37 | 203 | 6.4 | 6.4 | 0.00 | 0.00 | 0.00 | 58 | 1018.2 |
| 20260903195707 | 38 | 293 | 3.2 | 8.0 | 0.00 | 0.00 | 0.00 | 56 | 1018.2 |
| 20260903195111 | 38 | 270 | 3.2 | 4.8 | 0.00 | 0.00 | 0.00 | 57 | 1018.2 |
| 20260903194544 | 37 | 248 | 6.4 | 6.4 | 0.00 | 0.00 | 0.00 | 57 | 1018.2 |
| 20260903193947 | 37 | 225 | 1.6 | 9.7 | 0.00 | 0.00 | 0.00 | 57 | 1018.6 |
| 20260903192714 | 37 | 338 | 4.8 | 4.8 | 0.00 | 0.00 | 0.00 | 58 | 1018.6 |
| 20260903192139 | 37 | 180 | 6.4 | 6.4 | 0.00 | 0.00 | 0.00 | 58 | 1018.9 |
| 20260903191546 | 37 | 113 | 3.2 | 3.2 | 0.00 | 0.00 | 0.00 | 58 | 1018.9 |
| 20260903190945 | 37 | 0 | 3.2 | 6.4 | 0.00 | 0.00 | 0.00 | 59 | 1018.9 |
| 20260903190337 | 37 | 23 | 3.2 | 6.4 | 0.00 | 0.00 | 0.00 | 58 | 1019.3 |
| 20260903185112 | 37 | 248 | 4.8 | 4.8 | 0.00 | 0.00 | 0.00 | 58 | 1018.9 |
| 20260903184523 | 37 | 225 | 3.2 | 4.8 | 0.00 | 0.00 | 0.00 | 57 | 1019.3 |
| 20260903183933 | 37 | 45 | 3.2 | 4.8 | 0.00 | 0.00 | 0.00 | 57 | 1019.3 |
| 20260903183306 | 37 | 180 | 3.2 | 6.4 | 0.00 | 0.00 | 0.00 | 56 | 1019.3 |
| 20260903182707 | 39 | 270 | 1.6 | 6.4 | 0.00 | 0.00 | 0.00 | 54 | 1019.3 |
| 20260903182137 | 38 | 45 | 6.4 | 6.4 | 0.00 | 0.00 | 0.00 | 54 | 1019.3 |
| 20260903181538 | 38 | 23 | 4.8 | 8.0 | 0.00 | 0.00 | 0.00 | 54 | 1019.3 |
| 20260903180926 | 37 | 0 | 4.8 | 8.0 | 0.00 | 0.00 | 0.00 | 57 | 1019.3 |
| 20260903180346 | 37 | 45 | 4.8 | 9.7 | 0.00 | 0.00 | 0.00 | 58 | 1019.3 |
| 20260903175707 | 36 | 315 | 1.6 | 6.4 | 0.00 | 0.00 | 0.00 | 57 | 1019.6 |
| 20260903175119 | 36 | 45 | 0.0 | 3.2 | 0.00 | 0.00 | 0.00 | 58 | 1019.6 |
| 20260903174541 | 37 | 23 | 3.2 | 3.2 | 0.00 | 0.00 | 0.00 | 57 | 1019.6 |
| 20260903173943 | 37 | 180 | 1.6 | 4.8 | 0.00 | 0.00 | 0.00 | 58 | 1019.6 |
| 20260903173347 | 37 | 315 | 3.2 | 6.4 | 0.00 | 0.00 | 0.00 | 59 | 1019.6 |
| 20260903172111 | 36 | 203 | 0.0 | 6.4 | 0.00 | 0.00 | 0.00 | 60 | 1019.6 |
| 20260903171521 | 36 | 225 | 3.2 | 3.2 | 0.00 | 0.00 | 0.00 | 63 | 1019.9 |
| 20260903170347 | 36 | 45 | 8.0 | 9.7 | 0.00 | 0.00 | 0.00 | 62 | 1019.9 |
| 20260903165747 | 36 | 225 | 0.0 | 1.6 | 0.00 | 0.00 | 0.00 | 64 | 1019.9 |
| 20260903165109 | 36 | 203 | 3.2 | 3.2 | 0.00 | 0.00 | 0.00 | 63 | 1019.9 |
| 20260903164514 | 36 | 203 | 3.2 | 3.2 | 0.00 | 0.00 | 0.00 | 66 | 1019.9 |
| 20260903163922 | 35 | 203 | 4.8 | 9.7 | 0.00 | 0.00 | 0.00 | 67 | 1020.3 |
| 20260903163314 | 36 | 180 | 4.8 | 6.4 | 0.00 | 0.00 | 0.00 | 68 | 1020.3 |
| 20260903162743 | 35 | 158 | 1.6 | 8.0 | 0.00 | 0.00 | 0.00 | 69 | 1020.3 |
| 20260903162108 | 35 | 180 | 1.6 | 3.2 | 0.00 | 0.00 | 0.00 | 70 | 1020.3 |